SARI

Details ICAO SARI (IGR)
Name CATARATAS DEL IGUAZU
Region Argentina
Timezone America/Argentina/Cordoba (UTC-3.0)
Plans Departing 49
Arriving 67
Stats Elevation 916 ft / 279 m (AMSL)
Location -25.737279° -54.473444°
Runways 1
Magnetic Variation 16.323° W
Sunrise 2018-05-25 10:14:50 UTC / 2018-05-25 07:14:50 Local
Sunset 2018-05-25 20:57:44 UTC / 2018-05-25 17:57:44 Local
Advertisement - Login to hide

Runways

ID Width Length Bearing (true) Bearing (mag) Surface Threshold Offset Overrun Length
13 148 ft / 45 m 10,822 ft / 3,298 m 114.88° 131.20° Asphalt 0 ft / 0 m 95 ft / 29 m
31 148 ft / 45 m 10,822 ft / 3,298 m 294.87° 311.19° Asphalt 0 ft / 0 m 95 ft / 29 m

Approach Navaids

Runway Type Ident Frequency Range Bearing (true) Bearing (mag) Slope Elevation
31 Localiser IG 110.90 MHz 18 nm / 33 km 294.89° 311.21° - 920 ft / 280 m (AMSL)
31 Glidescope IG 110.90 MHz 10 nm / 19 km 294.88° 311.20° 3.00° 958 ft / 292 m (AMSL)
31 DME IG 110.90 MHz 18 nm / 33 km - - - 958 ft / 292 m (AMSL)

Map

Weather


0- 5 10 15 20 25 30 35+ Temperature / ° C

Clouds and Precipitation
Forecast for 2018-05-26 00:00 UTC. Updated 2 hours ago

Ground ~20,000 ft ~40,000 ft Winds

METAR

SARI 260100Z 00000KT CAVOK 18/16 Q1020

TAF

TAF SARI 252300Z 2600/2624 VRB03KT CAVOK TX25/2618Z TN12/2610Z PROB40 2607/2611 3000 BR NSC

Frequencies

Tower 120.70 MHz TWR/APP
Tower 118.30 MHz TWR/APP
Warning: Do not use this data for real-world aviation or navigation. No guarantee of current accuracy is given.